This demonstration page uses our WeatherBlox Daily Observations layout. Learn more.

Left ArrowRight Arrow

39.01783, -85.05884

Hourly Observations for October 23, 2020

Temp ( °F °C ) Dew Point ( °F °C ) Humidity (%) Winds ( mph kmh ) Pressure ( in mb ) Visibility ( mi km ) Precip ( " mm )
12:52 am 00:52 Clear 66 18.9 56 13.3 70 70 S 6 9 30.03 1017 10 16.0934 0 0
1:52 am 01:52 Clear 65 18.3 56 13.3 73 73 S 6 9 30.02 1017 10 16.0934 0 0
2:52 am 02:52 Clear 63 17.2 55 12.8 76 76 S 8 13 30.01 1016 10 16.0934 0 0
3:52 am 03:52 Clear 64 17.8 56 13.3 75 75 S 9 15 30.01 1016 10 16.0934 0 0
4:52 am 04:52 Clear 63 17.2 56 13.3 78 78 S 6 9 30.01 1016 10 16.0934 0 0
5:52 am 05:52 Clear 62 16.7 56 13.3 80 80 S 8 13 30.02 1017 10 16.0934 0 0
6:52 am 06:52 Clear 61 16.1 56 13.3 84 84 S 8 13 30.04 1017 10 16.0934 0 0
7:52 am 07:52 Mostly Cloudy 62 16.7 57 13.9 84 84 S 8 13 30.04 1017 10 16.0934 0 0
8:52 am 08:52 Mostly Cloudy 64 17.8 59 15 84 84 S 10 17 30.04 1017 10 16.0934 0 0
9:52 am 09:52 Mostly Cloudy 67 19.4 60 15.6 79 79 SSW 13 20 30.04 1017 10 16.0934 0 0
10:52 am 10:52 Mostly Cloudy 71 21.7 61 16.1 71 71 SSW 13 20 30.03 1017 10 16.0934 0 0
11:52 am 11:52 Partly Cloudy 74 23.3 62 16.7 67 67 S 16 26 30.01 1016 10 16.0934 0 0
12:52 pm 12:52 Mostly Cloudy 74 23.3 63 17.2 69 69 SSW 9 15 30.01 1016 10 16.0934 0 0
12:56 pm 12:56 Mostly Cloudy with Nearby Thunderstorms 75 23.9 63 17.2 66 66 SW 12 19 30 1016 10 16.0934 0 0
1:01 pm 13:01 Mostly Cloudy with Thunderstorms 75 23.9 63 17.2 66 66 SSW 13 20 30 1016 10 16.0934 0 0
1:21 pm 13:21 Mostly Cloudy with Thunderstorms 75 23.9 64 17.8 69 69 SSW 13 20 30 1016 10 16.0934 0 0
1:52 pm 13:52 Partly Cloudy with Nearby Thunderstorms 75 23.9 64 17.8 69 69 SW 10 17 29.99 1016 10 16.0934 0 0
2:15 pm 14:15 Mostly Cloudy 76 24.4 64 17.8 67 67 SW 14 22 29.97 1015 10 16.0934 0 0
2:52 pm 14:52 Mostly Cloudy 77 25 64 17.8 64 64 SW 13 20 29.96 1014 10 16.0934 0 0
3:52 pm 15:52 Mostly Cloudy 76 24.4 63 17.2 64 64 SW 13 20 29.92 1013 10 16.0934 0 0
4:52 pm 16:52 Partly Cloudy 77 25 64 17.8 64 64 S 18 30 29.91 1013 10 16.0934 0.001 0.001
5:52 pm 17:52 Mostly Cloudy 72 22.2 63 17.2 73 73 S 8 13 29.9 1013 10 16.0934 0 0
6:52 pm 18:52 Cloudy 70 21.1 63 17.2 79 79 S 8 13 29.91 1013 10 16.0934 0 0
7:47 pm 19:47 Cloudy with Light Thunderstorms 72 22 61 16 69 69 SW 15 24 29.93 1014 10 16.0934 0.001 0.001
7:52 pm 19:52 Cloudy with Heavy Thunderstorms 70 21.1 62 16.7 76 76 WSW 20 31 29.95 1014 5 8.0467 0.001 0.001
8:52 pm 20:52 Cloudy with Light Rain 64 17.8 61 16.1 90 90 WSW 8 13 29.96 1014 10 16.0934 0.12 3.048
9:38 pm 21:38 Cloudy 64 17.8 61 16.1 90 90 W 12 19 29.96 1015 10 16.0934 0.001 0.001
9:52 pm 21:52 Cloudy 64 17.8 61 16.1 90 90 W 13 20 29.97 1015 10 16.0934 0.001 0.001
10:03 pm 22:03 Cloudy 62 16.7 59 15 90 90 NW 23 37 29.99 1016 10 16.0934 0 0
10:52 pm 22:52 Cloudy 56 13.3 52 11.1 87 87 NW 17 28 30.03 1017 10 16.0934 0 0
11:52 pm 23:52 Cloudy 52 11.1 47 8.3 83 83 NNW 15 24 30.06 1018 10 16.0934 0 0

Powered by AerisWeather